Location: Foulognes
(49.1413°N, 0.8183°W)
Time: 22:39:41
(UTC+00:00)

Cosmos 489 Rocket - Pass Details

Date: 21 October 2019
Orbit: 953 x 983 km, 74.0° (Epoch: 14 November)

Event Time Altitude Azimuth Distance (km) Brightness Sun altitude
Rises 17:47:28 0° 193° (SSW) 3,620 7.8 -8.1°
Reaches altitude 10° 17:49:59 10° 191° (S) 2,676 7.0 -8.5°
Maximum altitude 17:56:08 70° 109° (ESE) 1,012 4.4 -9.5°
Drops below altitude 10° 18:02:18 10° 27° (NNE) 2,692 6.5 -10.5°
Sets 18:04:50 0° 25° (NNE) 3,643 7.2 -10.9°
